RH
93 90 87 86 85 85 83 81 79 76 74 74 69 70 69 71 70 75 76 74 72 67 61 61 74 69 71 72 74 73 73 74 72 75 80 78 74 70 72 76 77 65 66
88 85 88 87 87 87 85 83 80 81 81 77 75 65 66 70 69 70 71 69 68 61 62 61 70 69 66 65 69 68 69 70 73 79 83 86 82 73 71 78 77 72 78
87 83 84 88 88 87 86 84 84 84 81 79 75 69 70 67 69 66 67 67 63 66 65 63 68 69 65 63 65 66 68 71 73 77 81 84 82 73 72 78 79 74 70
81 81 84 90 89 88 86 86 85 84 82 81 78 75 70 67 67 65 64 64 66 74 70 70 71 68 66 66 67 69 70 67 75 70 74 78 74 73 73 72 72 70 67
81 80 85 90 88 87 86 86 86 84 83 82 82 78 75 69 66 64 68 60 76 79 78 79 73 68 67 70 72 76 76 79 78 69 80 86 87 72 73 71 71 70 66
76 82 92 90 89 88 87 86 86 84 83 82 82 78 77 71 67 66 70 71 80 75 74 76 71 69 69 71 75 77 76 78 74 68 86 87 86 74 72 70 69 66 65
73 82 87 90 90 89 88 87 85 85 84 83 81 79 76 72 70 69 72 74 71 73 63 73 70 68 68 70 73 75 75 75 59 65 86 92 78 72 69 69 67 65 60
80 80 81 90 91 90 89 88 87 87 86 84 84 81 78 73 71 69 72 74 66 69 70 65 72 70 67 66 71 74 76 74 59 64 81 85 76 70 68 67 69 65 59
79 80 82 85 90 93 92 90 88 88 88 86 85 83 83 79 76 72 75 75 72 61 71 60 75 70 67 67 72 78 78 74 64 69 67 86 76 67 64 62 61 60 60
84 84 89 89 88 93 92 91 90 90 89 87 88 89 89 85 79 78 79 78 73 72 64 77 76 71 73 76 74 76 76 74 59 69 77 83 70 60 60 62 63 61 61
91 88 88 92 91 93 93 89 90 92 91 92 91 90 84 80 75 74 80 78 74 67 78 78 80 79 76 77 77 76 72 68 74 82 70 73 67 65 58 60 64 65 62
95 91 89 90 91 91 80 93 95 91 94 90 87 80 75 77 75 75 82 78 75 73 79 81 83 85 82 81 75 72 61 72 70 77 67 71 66 62 61 58 63 61 62
84 86 91 89 88 91 85 97 98 98 96 92 87 80 66 70 83 85 87 80 80 76 89 86 92 85 82 77 72 64 65 72 76 70 70 75 68 66 60 61 64 62 63
85 84 89 90 90 91 93 92 95 96 96 93 91 79 66 75 85 84 85 87 83 86 93 95 92 87 73 68 71 60 66 77 84 83 72 78 74 64 61 68 60 62 62
89 86 85 84 92 90 92 91 90 94 94 94 92 76 63 67 80 83 82 86 87 87 91 94 92 80 64 59 62 60 66 73 89 88 77 78 75 68 63 57 66 61 64
83 88 87 86 89 89 94 94 89 93 90 95 92 79 63 61 70 77 78 79 82 84 86 84 84 70 64 60 57 53 61 70 89 86 88 76 78 75 65 64 58 58 61
78 84 89 88 89 88 91 93 95 93 92 94 92 90 69 64 68 72 73 80 76 77 79 77 80 68 80 60 56 65 62 71 85 83 86 76 82 79 71 65 60 65 62
63 68 74 70 80 81 90 94 96 96 96 96 94 89 76 65 64 67 71 73 76 77 73 82 81 78 85 68 64 66 62 70 77 74 70 76 81 80 81 73 67 64 61
64 63 67 69 75 78 83 95 95 94 97 97 97 91 90 75 73 65 68 71 69 79 81 80 81 78 90 85 69 72 68 70 71 64 72 72 76 83 91 81 78 75 70
56 61 67 68 66 74 87 96 97 96 96 97 97 96 94 88 78 74 80 73 72 71 73 77 79 84 90 85 70 77 79 68 71 74 75 69 74 76 89 83 90 84 76
77 61 61 67 71 78 93 98 98 97 96 94 96 92 92 92 77 76 83 83 83 80 72 67 75 78 93 89 95 93 85 80 73 72 80 75 76 75 85 86 89 91 86
84 90 74 66 70 78 86 96 96 96 95 94 92 90 91 87 81 82 81 85 85 84 80 72 81 85 88 89 96 96 96 91 82 75 73 71 82 82 84 83 88 87 91
80 88 85 84 70 78 85 96 97 96 95 94 88 86 93 90 86 84 81 82 85 78 82 85 83 79 88 92 72 82 98 96 96 93 79 74 74 82 88 82 79 83 87
71 78 87 87 78 74 89 93 94 93 91 85 87 79 95 93 89 88 86 83 81 82 83 86 84 80 83 87 85 76 81 89 92 98 94 89 73 72 79 90 84 81 82
68 78 83 87 91 75 88 91 91 94 92 96 96 95 84 96 93 92 86 86 86 84 79 83 91 91 74 80 82 85 86 91 86 92 97 96 94 86 74 74 87 87 84
63 70 77 83 87 89 80 93 89 94 96 97 96 97 94 96 96 93 90 89 86 85 83 84 85 92 85 76 79 90 78 84 86 92 96 97 91 93 89 77 75 86 86
Wind_Speed
11 13 18 18 19 20 19 19 18 17 17 18 18 18 17 16 16 17 17 18 17 17 16 15 16 19 17 19 19 19 19 20 21 20 18 17 18 20 19 17 16 14 19
15 14 18 18 19 20 19 19 17 16 17 17 17 17 17 15 15 14 14 18 15 17 16 15 16 17 18 16 16 17 18 19 18 15 14 12 15 18 20 18 16 16 24
16 14 14 17 18 20 19 18 17 17 17 17 17 17 16 16 16 16 15 14 16 15 18 16 16 17 16 17 15 16 14 12 12 11 11 6 7 18 20 21 21 23 23
16 13 13 17 18 19 18 18 18 18 17 17 17 19 18 17 16 15 15 15 15 15 18 18 18 14 17 16 16 14 9 8 7 6 5 7 10 21 22 21 22 22 21
15 13 12 17 18 18 18 17 17 17 17 16 17 18 19 18 17 15 14 15 15 16 17 18 19 15 16 14 15 15 20 18 16 11 8 6 6 19 22 22 20 20 19
15 13 14 17 17 18 17 16 16 16 16 15 16 18 19 18 17 15 12 12 14 13 16 16 17 15 13 12 15 21 21 18 12 9 8 9 7 22 22 22 20 20 17
15 13 12 16 18 18 18 17 16 16 15 14 17 19 19 19 18 15 13 11 11 13 14 15 16 14 12 10 16 18 16 16 11 10 7 6 12 22 21 21 20 18 18
15 14 13 14 16 17 17 16 15 15 14 15 17 18 19 20 19 15 12 11 12 12 14 13 15 13 9 7 9 12 12 10 12 11 7 5 17 21 20 20 18 16 17
14 13 11 11 12 13 14 14 13 13 12 13 15 15 15 18 19 16 10 10 10 13 12 11 13 13 8 5 6 13 13 13 10 6 6 4 16 19 18 16 16 17 17
11 11 9 9 9 8 9 13 12 12 11 12 13 13 12 13 17 15 10 9 8 9 11 10 14 12 8 4 7 14 15 14 9 7 4 4 14 13 17 16 18 16 18
9 10 8 8 8 7 7 8 10 11 11 14 14 14 10 6 9 10 7 9 8 11 9 14 15 11 7 4 3 11 11 6 7 4 4 10 13 15 13 14 17 17 17
9 12 10 9 8 7 6 6 6 7 6 8 8 8 6 7 7 7 7 9 9 10 9 11 15 11 6 2 2 7 5 7 7 5 4 11 13 13 13 14 15 16 16
7 8 12 11 10 8 6 4 3 3 5 6 9 7 8 6 5 5 4 3 3 7 4 5 6 4 6 2 2 4 6 7 5 4 6 11 12 14 12 13 14 14 16
7 7 10 11 11 9 6 6 5 5 4 5 6 7 7 5 5 5 4 5 4 3 5 5 3 4 4 5 3 6 6 7 4 3 5 10 11 13 12 13 13 13 15
8 7 8 8 11 9 9 7 7 6 6 6 7 7 8 8 7 5 5 5 4 4 4 4 5 4 4 4 4 5 7 9 6 3 4 8 9 10 11 10 12 12 13
9 8 8 7 7 10 8 8 7 7 7 6 7 6 10 9 8 6 5 6 5 5 4 4 5 4 6 4 3 7 9 8 5 6 3 4 7 9 8 11 10 9 11
6 7 8 7 7 7 8 8 6 6 6 6 7 7 9 10 9 8 6 5 6 5 6 4 3 3 5 5 5 6 7 9 5 6 4 3 5 6 8 10 9 10 10
8 8 7 6 7 6 6 6 5 5 6 6 6 6 8 10 11 9 6 7 5 5 6 4 3 3 5 5 4 4 6 7 6 6 4 3 4 3 5 9 10 8 7
7 8 8 7 8 7 5 4 5 6 5 5 5 6 6 8 7 7 7 7 7 6 4 4 1 3 4 3 6 4 4 5 6 5 6 5 5 4 3 6 7 6 6
2 5 5 6 7 6 4 3 2 3 3 4 5 5 6 5 7 8 6 7 6 7 5 4 3 1 4 5 6 5 3 4 3 4 5 6 4 5 5 4 3 3 6
11 3 6 6 7 4 3 4 3 4 3 3 4 6 8 7 8 9 5 6 5 5 7 7 4 5 1 5 5 3 4 4 3 3 4 4 6 5 5 4 3 2 2
8 10 9 5 7 5 4 3 4 4 2 3 3 5 7 9 10 8 9 5 6 6 7 7 5 3 3 4 4 3 2 3 2 2 3 5 6 4 5 5 5 4 3
10 11 10 9 7 6 6 5 3 4 3 3 5 6 4 8 10 10 10 8 6 6 6 7 8 8 5 2 9 5 3 5 2 2 4 5 6 4 4 5 5 5 5
10 8 8 9 7 6 8 8 7 7 8 7 7 7 5 7 9 10 9 10 9 5 7 6 6 6 5 8 2 2 1 6 4 1 2 2 5 6 6 4 4 5 5
9 9 8 9 9 7 6 9 9 8 6 2 3 6 9 7 8 10 11 10 9 7 8 8 6 5 7 8 6 4 2 1 3 3 3 3 1 3 6 6 5 4 5
9 10 10 12 10 11 6 7 12 11 8 5 7 8 7 7 6 8 10 10 9 9 9 8 9 7 8 6 7 3 5 4 3 3 2 2 5 4 4 5 6 5 5
Wind_Direction
154 149 144 142 140 140 137 131 127 126 121 115 115 110 107 97 94 93 106 105 96 88 87 91 80 93 89 85 87 87 82 81 78 75 70 70 75 81 78 75 83 82 82
140 144 145 143 143 144 140 135 134 128 127 118 116 113 110 103 101 94 92 93 94 89 104 98 84 85 84 88 91 87 87 85 78 77 68 68 79 84 80 78 85 82 75
139 142 142 141 144 144 142 141 138 132 130 128 124 118 110 111 105 100 95 98 93 106 94 99 94 91 89 90 90 81 76 77 64 61 74 62 81 92 86 82 80 75 74
136 141 142 139 141 141 143 143 139 137 135 134 131 121 113 110 106 108 106 100 102 104 100 105 102 96 85 84 79 67 72 81 78 83 65 52 84 93 87 84 78 73 73
135 137 139 137 140 140 141 140 139 139 138 138 131 128 121 115 111 108 93 109 100 106 103 108 106 93 83 81 75 75 94 91 79 84 76 58 67 91 83 77 73 71 71
138 137 137 137 134 136 137 139 138 138 140 141 134 132 121 118 112 110 94 99 102 94 94 103 98 91 81 78 76 87 86 82 71 64 58 56 82 89 86 80 74 71 68
140 140 140 138 135 137 140 140 140 140 142 140 138 134 128 121 114 113 99 92 109 91 105 98 102 88 80 62 86 87 88 90 78 67 52 45 91 88 84 79 75 72 71
137 143 146 139 138 137 138 140 141 140 144 138 142 144 136 125 116 111 105 97 112 109 106 110 110 97 84 83 91 84 80 76 88 73 53 46 82 80 78 79 77 74 75
134 138 144 144 140 140 139 139 137 137 136 137 140 141 126 124 115 115 109 103 110 123 123 121 109 103 104 107 92 65 80 102 84 75 75 46 82 82 75 81 89 81 79
132 138 140 143 141 140 150 145 143 138 137 133 121 113 114 118 117 117 117 104 104 125 115 134 115 109 110 120 72 77 84 86 93 84 65 77 84 81 84 83 89 85 79
135 143 143 132 138 142 142 154 145 142 134 125 122 123 111 112 115 114 128 124 116 121 106 123 120 111 108 67 23 70 99 96 86 82 78 84 89 86 89 94 90 90 87
150 153 155 151 151 147 152 141 136 136 131 133 134 140 131 130 127 127 134 134 137 123 115 123 115 120 100 19 346 72 113 111 102 86 84 80 90 96 94 93 91 94 91
142 152 159 159 158 155 152 142 134 131 138 142 151 159 145 133 126 129 126 112 122 116 98 104 115 115 128 167 304 71 108 97 100 98 91 99 109 110 106 104 97 94 93
152 147 158 161 160 166 149 156 152 149 154 148 167 166 132 131 127 141 137 141 143 127 130 133 141 160 155 172 206 86 116 104 95 98 108 114 114 110 109 102 101 98 97
157 168 164 154 159 161 156 163 157 161 167 159 167 176 149 149 147 149 154 147 156 146 162 164 163 187 172 200 191 87 120 111 106 97 108 106 114 119 117 111 108 103 105
166 169 163 158 158 154 158 161 167 163 171 157 173 176 163 159 152 156 161 165 163 164 183 179 182 184 167 166 133 93 127 119 120 112 105 119 121 122 113 122 105 108 104
157 156 162 159 152 154 158 161 161 175 165 168 178 170 166 161 151 162 162 167 174 169 177 187 199 109 133 147 120 91 127 117 125 121 126 118 104 123 130 118 106 111 112
139 155 162 152 161 156 157 154 149 162 162 170 175 177 173 167 159 161 161 171 167 158 171 164 154 146 123 131 115 95 110 129 133 136 115 107 100 73 99 116 121 116 112
172 163 170 170 175 173 162 156 149 145 151 161 157 177 176 156 156 156 163 166 162 148 161 147 117 140 128 126 117 96 89 135 142 136 145 129 122 112 93 105 106 112 127
186 178 183 179 177 171 153 140 117 137 148 152 175 173 174 157 153 155 154 155 152 151 161 138 135 118 142 138 105 89 64 101 134 142 154 136 140 136 137 123 103 126 129
21 315 181 181 194 155 142 151 153 178 164 178 165 173 176 178 166 160 147 143 138 142 169 164 131 138 92 119 100 52 62 69 108 152 149 137 148 157 157 158 154 154 141
12 6 342 218 191 189 172 158 150 149 192 169 183 200 170 165 162 150 154 162 151 145 152 157 149 130 103 162 121 107 85 348 344 148 172 149 157 145 175 188 178 179 164
10 350 338 324 237 192 176 135 96 81 65 156 203 209 185 157 157 161 166 162 166 164 169 173 165 165 145 215 165 139 137 210 128 293 210 166 166 160 175 177 180 187 179
353 337 329 331 305 223 171 166 165 180 183 203 198 197 173 158 168 163 167 167 171 177 171 171 170 171 142 177 185 164 157 141 165 206 282 252 180 180 178 198 193 184 179
353 343 338 343 338 286 196 178 172 180 190 152 163 179 182 174 176 178 171 169 173 182 187 176 166 166 182 173 185 166 171 134 137 133 191 231 271 229 184 182 192 201 186
3 359 359 358 335 334 241 189 182 180 168 161 182 185 188 176 178 185 170 174 175 180 180 185 183 181 191 195 195 185 192 168 177 147 143 169 213 243 199 178 183 194 201